Regional Weather Roundup
Issued by NWS

Home | Current Version | Previous Version | Text Only | Print | Product List | Glossary Off
Versions: 1 2 3 4 5 6 7 8 9 10 11 12 13 14 15 16 17 18 19 20 21 22 23 24 25 26 27 28 29 30 31 32 33 34 35 36 37 38 39 40 41 42 43 44 45 46 47 48 49 50

000
ASUS45 KTFX 280610
RWRMT
MONTANA REGIONAL WEATHER ROUNDUP
NATIONAL WEATHER SERVICE GREAT FALLS MT
1200 AM MDT FRI JUL 28 2017

NOTE: "FAIR" INDICATES FEW OR NO CLOUDS BELOW 12000 FEET WITH NO
SIGNIFICANT WEATHER AND/OR OBSTRUCTIONS TO VISIBILITY.

MTZ001>007-043-280700-
WEST OF THE DIVIDE

CITY           SKY/WX    TMP DP  RH WIND       PRES   REMARKS
KALISPELL      CLEAR     71  50  47 SE5       29.98R
MISSOULA       CLEAR     70  51  51 E6        30.04R
BUTTE          CLOUDY    65  46  50 CALM      30.20R
MULLAN PASS    CLEAR     63  35  35 SW7       30.20S
ANACONDA         N/A     68  46  45 S9          N/A
DEER LODGE       N/A     64  50  59 S3        30.14S
EUREKA           N/A     72  45  37 MISG      29.95R
HAMILTON         N/A     68  52  56 SE15      30.08S
LIBBY            N/A     68  46  45 CALM      29.96R
$$

MTZ008-052>055-280700-
SOUTHWEST MONTANA

CITY           SKY/WX    TMP DP  RH WIND       PRES   REMARKS
BOZEMAN        CLOUDY    60  52  74 SE9       30.12S
DILLON         CLEAR     59  47  64 S10       30.17S
W YELLOWSTONE  CLOUDY    46  46 100 CALM      30.30S
ENNIS          CLEAR     57  46  67 CALM      30.24R
THREE FORKS      N/A     68  51  54 SW5       30.08S
$$

MTZ009-010-012-014-046-048-049-054-280700-
EAST SLOPES AND CENTRAL MONTANA

CITY           SKY/WX    TMP DP  RH WIND       PRES   REMARKS
CUT BANK       CLEAR     75  41  29 W14       29.97S
GREAT FALLS    CLOUDY    68  40  35 SW9       29.98R
HELENA         CLEAR     71  48  43 W7        30.03R
CHOTEAU          N/A     70  43  37 SW6       30.02R
$$

MTZ011-013-016-021-045-047-050-051-280700-
NORTH CENTRAL MONTANA

CITY           SKY/WX    TMP DP  RH WIND       PRES   REMARKS
HAVRE          CLEAR     76  46  34 S12       29.87S
LEWISTOWN      PTCLDY    69  49  48 E5        30.03F
N BAR RANCH      N/A     64  52  63 NW3       30.09S
CHINOOK          N/A     75  48  38 E7        29.88R
$$

MTZ017>020-022>027-061-062-280700-
NORTHEAST MONTANA

CITY           SKY/WX    TMP DP  RH WIND       PRES   REMARKS
GLASGOW        PTCLDY    68  52  56 E7        29.94F
JORDAN           N/A     68  50  52 VRB5      29.95F
SIDNEY         CLOUDY    66  61  84 N3        30.01R
WOLF POINT     CLEAR     66  58  75 E7        29.98R
MALTA          CLEAR     73  55  53 SE5       29.92S
PLENTYWOOD       N/A     64  59  82 CALM      30.00F
POPLAR           N/A     66  59  77 E6        29.99S
$$

MTZ028>42-056>058-280700-
SOUTHCENTRAL AND SOUTHEAST MONTANA

CITY           SKY/WX    TMP DP  RH WIND       PRES   REMARKS
BAKER          CLOUDY    63  52  67 E13       30.03F
BILLINGS       CLOUDY    75  53  46 SE10      30.01F
LIVINGSTON     CLOUDY    66  45  46 SW3       30.11R
MILES CITY     CLOUDY    72  54  53 E7        29.96S
BIG TIMBER     CLEAR     68  46  45 W12       30.11S
FORSYTH          N/A     72  55  56 NE3       29.93F
LAUREL           N/A     72  52  49 CALM      30.01S
$$

REGIONAL REPORTS...DAKOTAS

CITY           SKY/WX    TMP DP  RH WIND       PRES   REMARKS
WILLISTON      CLEAR     67  61  81 CALM      30.01S
MINOT          MOCLDY    71  60  68 SE7       30.03S
DICKINSON      CLEAR     62  59  90 E7        30.04S
BEACH            N/A     59  59 100 SE8       30.07F
CROSBY           N/A     66  59  77 S9        30.02S
TIOGA            N/A     61  61 100 E3        30.05S
WATFORD CITY     N/A     66  63  88 E8        30.02R
BISMARCK       CLEAR     69  58  67 SE7       30.05R
GRAND FORKS    PTCLDY    63  61  93 S3        30.05S
FARGO          CLEAR     64  61  90 CALM      30.06S
BUFFALO SD       N/A     63  56  78 E13       29.99S
RAPID CITY     CLEAR     60  55  83 SW9       30.06F
$$

REGIONAL REPORTS...WYOMING/IDAHO/WASHINGTON

CITY           SKY/WX    TMP DP  RH WIND       PRES   REMARKS
GILLETTE       CLOUDY    64  63  96 S5        30.09F
SHERIDAN       PTCLDY    62  54  74 SW6       30.07F
BUFFALO WY     PTCLDY    63  55  75 SW6       30.15F
CODY           CLEAR     69  48  47 W10G16    30.14R
YELLOWSTONE LA   N/A     45  43  93 CALM      30.37S
IDAHO FALLS    CLEAR     55  54  96 N6        30.18R
BOISE          CLEAR     76  44  32 SE7       29.98S
SPOKANE        CLEAR     75  41  29 S8        29.97S
$$

REGIONAL REPORTS...ALBERTA

CITY           SKY/WX    TMP DP  RH WIND       PRES   REMARKS
EDMONTON       LGT RAIN  57  55  94 W6        29.94S
CALGARY        MOCLDY    66  59  77 N18G26    29.97R
LETHBRIDGE     CLEAR     70  46  43 W14       29.90R
MEDICINE HAT   CLEAR     68  52  56 S7        29.83R
WATERTON GATE    N/A     70  41  35 SW9         N/A
CARDSTON         N/A     66  45  45 SW8         N/A
MILK RIVER       N/A     61  48  63 NW5         N/A
$$

REGIONAL REPORTS...SASKATCHEWAN

CITY           SKY/WX    TMP DP  RH WIND       PRES   REMARKS
SWIFT CURRENT  CLEAR     72  57  60 S15G21    29.90S
REGINA         PTCLDY    66  59  77 SE15G21   29.97F
SASKATOON      CLEAR     73  55  53 SE15      29.88S
CYPRESS HILLS    N/A     68  45  42 SE6         N/A
VAL MARIE        N/A     70  52  52 S9          N/A
ROCKGLEN         N/A     63  57  82 SE9         N/A
ASSINIBOIA       N/A     61  57  88 NW10        N/A
$$



USA.gov is the U.S. government's official web portal to all federal, state and local government web resources and services.